| time (UTC) | temp F | wind direction | speed knots | gust knots | rain 1hr in | rain 24hr in | rain mn in | humidity % | barometer mb |
| 20260506073002 | 62 | 185 | 1.7 | 8.7 | 0.00 | 0.00 | 0.00 | 56 | 1014.2 |
| 20260506071501 | 62 | 174 | 2.6 | 10.4 | 0.00 | 0.00 | 0.00 | 56 | 1014.6 |
| 20260506061554 | 63 | 164 | 2.6 | 12.2 | 0.00 | 0.00 | 0.00 | 55 | 1014.4 |
| 20260506044629 | 65 | 126 | 2.6 | 12.2 | 0.00 | 0.00 | 0.00 | 49 | 1015.1 |
| 20260506043036 | 66 | 134 | 3.5 | 11.3 | 0.00 | 0.00 | 0.00 | 48 | 1015.0 |
| 20260506041534 | 67 | 154 | 2.6 | 10.4 | 0.00 | 0.00 | 0.00 | 46 | 1015.0 |
| 20260506040032 | 67 | 109 | 2.6 | 11.3 | 0.00 | 0.00 | 0.00 | 43 | 1014.9 |
| 20260506034558 | 68 | 161 | 0.9 | 6.1 | 0.00 | 0.00 | 0.00 | 41 | 1014.7 |
| 20260506033032 | 68 | 155 | 1.7 | 7.0 | 0.00 | 0.00 | 0.00 | 40 | 1014.8 |
| 20260506031527 | 69 | 136 | 1.7 | 7.8 | 0.00 | 0.00 | 0.00 | 40 | 1014.6 |
| 20260506030024 | 69 | 216 | 1.7 | 7.8 | 0.00 | 0.00 | 0.00 | 39 | 1014.6 |
| 20260506024522 | 69 | 153 | 1.7 | 6.1 | 0.00 | 0.00 | 0.00 | 39 | 1014.6 |
| 20260506023021 | 69 | 124 | 0.9 | 4.3 | 0.00 | 0.00 | 0.00 | 39 | 1014.7 |
| 20260506021519 | 70 | 183 | 0.9 | 2.6 | 0.00 | 0.00 | 0.00 | 38 | 1014.6 |
| 20260506020018 | 70 | 142 | 0.9 | 4.3 | 0.00 | 0.00 | 0.00 | 38 | 1014.7 |
| 20260506014525 | 70 | 153 | 0.9 | 4.3 | 0.00 | 0.00 | 0.00 | 38 | 1014.8 |
| 20260506013017 | 70 | 244 | 0.9 | 4.3 | 0.00 | 0.00 | 0.00 | 38 | 1014.7 |
| 20260506011519 | 70 | 150 | 0.9 | 5.2 | 0.00 | 0.00 | 0.00 | 37 | 1014.5 |
| 20260506010019 | 71 | 169 | 0.0 | 2.6 | 0.00 | 0.00 | 0.00 | 35 | 1014.6 |
| 20260506004531 | 71 | 173 | 0.9 | 6.1 | 0.00 | 0.00 | 0.00 | 35 | 1014.4 |
| 20260506003033 | 72 | 175 | 0.9 | 2.6 | 0.00 | 0.00 | 0.00 | 33 | 1014.6 |
| 20260506001518 | 73 | 208 | 0.9 | 2.6 | 0.00 | 0.00 | 0.00 | 32 | 1014.4 |
| 20260506000016 | 74 | 210 | 0.9 | 1.7 | 0.00 | 0.00 | 0.00 | 30 | 1014.4 |
| 20260505234638 | 74 | 210 | 0.9 | 7.0 | 0.00 | 0.00 | 0.00 | 29 | 1014.3 |
| 20260505233018 | 75 | 185 | 1.7 | 8.7 | 0.00 | 0.00 | 0.00 | 28 | 1014.1 |
| 20260505231516 | 76 | 233 | 0.9 | 12.2 | 0.00 | 0.00 | 0.00 | 27 | 1014.0 |
| 20260505230013 | 76 | 246 | 3.5 | 14.8 | 0.00 | 0.00 | 0.00 | 26 | 1014.2 |
| 20260505224513 | 76 | 236 | 4.3 | 13.9 | 0.00 | 0.00 | 0.00 | 26 | 1014.3 |
| 20260505223013 | 76 | 235 | 6.1 | 13.9 | 0.00 | 0.00 | 0.00 | 27 | 1014.2 |
| 20260505221516 | 76 | 144 | 2.6 | 10.4 | 0.00 | 0.00 | 0.00 | 27 | 1014.1 |
| 20260505220022 | 76 | 207 | 7.0 | 13.9 | 0.00 | 0.00 | 0.00 | 26 | 1014.2 |
| 20260505214512 | 76 | 167 | 4.3 | 15.6 | 0.00 | 0.00 | 0.00 | 27 | 1014.4 |
| 20260505213008 | 76 | 251 | 7.8 | 17.4 | 0.00 | 0.00 | 0.00 | 27 | 1014.5 |
| 20260505211508 | 76 | 267 | 5.2 | 12.2 | 0.00 | 0.00 | 0.00 | 27 | 1014.7 |
| 20260505210009 | 76 | 175 | 6.1 | 10.4 | 0.00 | 0.00 | 0.00 | 26 | 1014.8 |
| 20260505204508 | 76 | 167 | 4.3 | 11.3 | 0.00 | 0.00 | 0.00 | 26 | 1014.7 |
| 20260505203008 | 76 | 223 | 0.9 | 12.2 | 0.00 | 0.00 | 0.00 | 28 | 1014.8 |
| 20260505201509 | 77 | 270 | 7.0 | 17.4 | 0.00 | 0.00 | 0.00 | 26 | 1015.1 |
| 20260505200004 | 77 | 134 | 4.3 | 13.0 | 0.00 | 0.00 | 0.00 | 27 | 1015.3 |
| 20260505194505 | 76 | 254 | 8.7 | 17.4 | 0.00 | 0.00 | 0.00 | 26 | 1015.4 |
| 20260505193002 | 76 | 134 | 5.2 | 17.4 | 0.00 | 0.00 | 0.00 | 25 | 1015.5 |
| 20260505191602 | 77 | 252 | 2.6 | 11.3 | 0.00 | 0.00 | 0.00 | 24 | 1015.8 |
| 20260505190004 | 77 | 124 | 4.3 | 16.5 | 0.00 | 0.00 | 0.00 | 25 | 1016.0 |
| 20260505184502 | 76 | 265 | 6.1 | 14.8 | 0.00 | 0.00 | 0.00 | 26 | 1016.3 |
| 20260505183059 | 75 | 180 | 5.2 | 17.4 | 0.00 | 0.00 | 0.00 | 27 | 1016.6 |
| 20260505181601 | 75 | 246 | 7.0 | 14.8 | 0.00 | 0.00 | 0.00 | 27 | 1016.7 |
| 20260505180058 | 75 | 193 | 3.5 | 14.8 | 0.00 | 0.00 | 0.00 | 28 | 1016.9 |
| 20260505174608 | 74 | 259 | 4.3 | 15.6 | 0.00 | 0.00 | 0.00 | 29 | 1017.1 |
| 20260505173050 | 75 | 254 | 7.0 | 13.9 | 0.00 | 0.00 | 0.00 | 28 | 1017.1 |
| 20260505171548 | 74 | 158 | 5.2 | 9.6 | 0.00 | 0.00 | 0.00 | 27 | 1017.2 |
| 20260505170115 | 73 | 155 | 4.3 | 9.6 | 0.00 | 0.00 | 0.00 | 29 | 1017.1 |
| 20260505164549 | 74 | 196 | 3.5 | 8.7 | 0.00 | 0.00 | 0.00 | 30 | 1017.1 |
| 20260505163044 | 72 | 155 | 0.9 | 15.6 | 0.00 | 0.00 | 0.00 | 38 | 1017.2 |
| 20260505161537 | 70 | 178 | 4.3 | 12.2 | 0.00 | 0.00 | 0.00 | 38 | 1017.6 |
| 20260505153046 | 70 | 207 | 4.3 | 10.4 | 0.00 | 0.00 | 0.00 | 43 | 1018.2 |
| 20260505151534 | 69 | 232 | 4.3 | 12.2 | 0.00 | 0.00 | 0.00 | 45 | 1018.1 |
| 20260505124522 | 59 | 251 | 4.3 | 12.2 | 0.00 | 0.00 | 0.00 | 58 | 1017.7 |
| 20260505123023 | 59 | 239 | 4.3 | 11.3 | 0.00 | 0.00 | 0.00 | 59 | 1017.6 |
| 20260505121520 | 58 | 207 | 3.5 | 7.8 | 0.00 | 0.00 | 0.00 | 60 | 1017.5 |
| 20260505120026 | 57 | 146 | 2.6 | 7.8 | 0.00 | 0.00 | 0.00 | 60 | 1017.4 |
| 20260505114516 | 55 | 254 | 0.9 | 6.1 | 0.00 | 0.00 | 0.00 | 61 | 1017.2 |
| 20260505113020 | 54 | 229 | 0.0 | 3.5 | 0.00 | 0.00 | 0.00 | 62 | 1017.1 |
| 20260505111518 | 53 | 217 | 0.0 | 1.7 | 0.00 | 0.00 | 0.00 | 63 | 1017.0 |
| 20260505101514 | 53 | 212 | 0.0 | 1.7 | 0.00 | 0.00 | 0.00 | 61 | 1016.8 |
| 20260505100010 | 54 | 212 | 0.0 | 1.7 | 0.00 | 0.00 | 0.00 | 61 | 1016.9 |
| 20260505094509 | 54 | 212 | 0.0 | 0.9 | 0.00 | 0.00 | 0.00 | 60 | 1016.9 |
| 20260505093010 | 54 | 212 | 0.0 | 1.7 | 0.00 | 0.00 | 0.00 | 60 | 1016.6 |
| 20260505091507 | 54 | 212 | 0.0 | 0.9 | 0.00 | 0.00 | 0.00 | 59 | 1016.6 |
| 20260505090006 | 54 | 211 | 0.0 | 1.7 | 0.00 | 0.00 | 0.00 | 59 | 1016.6 |
| 20260505084513 | 55 | 211 | 0.0 | 1.7 | 0.00 | 0.00 | 0.00 | 58 | 1016.6 |
| 20260505083008 | 55 | 212 | 0.0 | 1.7 | 0.00 | 0.00 | 0.00 | 57 | 1016.5 |
| 20260505081600 | 56 | 213 | 0.9 | 3.5 | 0.00 | 0.00 | 0.00 | 56 | 1016.2 |